Tracking 31011 objects as of 12-Jul-2025
HD Live streaming from Space Station
objects crossing your sky now

SL-12 DEB

Track SL-12 DEB now!
10-day predictions


NORAD ID: 24833
Int'l Code: 1997-028F
Perigee: 1,214.8 km
Apogee: 3,053.7 km
Inclination: 63.3 °
Period: 130.1 minutes
Semi major axis: 8505 km
RCS: 0.8365 m2 (medium)
Launch date: June 6, 1997
Source: Commonwealth of Independent States (former USSR) (CIS)
Launch site: TYURATAM MISSILE AND SPACE COMPLEX (TTMTR)

Note: This is SATELLITE DEBRIS
Your satellite tracking list
Your tracking list is empty




NASA's NSSDC Master Catalog

Two Line Element Set (TLE):
1 24833U 97028F   25192.60244132 -.00000076  00000-0 -33538-3 0  9997
2 24833  63.3224 122.2227 1081012  44.8820 118.1883 11.06811172135310
Source of the keplerian elements: AFSPC